Погода в Браславской Луке

Беларусь     55°25′17″N   26°51′26″E
темп.,
°C
ветер,
м/с
пор.,
м/с
влажн.,
%
обл.,
%
осадки,
мм/ч
давл.,
гПа
погр.,
м
14 июня, пн
пн1400:00+11ссз5138893 0.0 1013469
03:00+9ссз512908 0.0 1015339
06:00+9ссз411884 0.0 1017294
09:00+14с47731 0.0 1018500
12:00+19с456017 0.0 10181294
15:00+21с335314 0.0 10181590
18:00+21ссз225514 0.0 10171509
21:00+17сз237418 0.0 101735
15 июня, вт
вт1500:00+11зсз33815 0.0 101740
03:00+10з22825 0.0 101722
06:00+10зюз25845 0.0 1017104
09:00+16зюз4669100 0.0 1016435
12:00+20зюз4661100 0.0 10151097
15:00+21з5764100 0.0 10141406
18:00+18зсз4889100 1.1 1014662
21:00+16зсз389575 1.4 1014438
16 июня, ср
ср1600:00+11зсз399414 0.0 1016175
03:00+9ссз38940 0.0 1017146
06:00+8ссз36925 0.0 1019141
09:00+13с347831 0.0 1020416
12:00+18ссв2257100 0.0 10201231
15:00+20ссз124813 0.0 10201515
18:00+21с12475 0.0 10201468
21:00+16с11693 0.0 102111
17 июня, чт
чт1700:00+11ссз12830 0.0 102210
03:00+11ссв11855 0.0 102310
06:00+12в11825 0.0 102411
09:00+17вюв11635 0.0 1025331
12:00+22вюв12510 0.0 10251065
15:00+24ююв12480 0.0 10241519
18:00+23ю23573 0.0 1024999
21:00+19в11760 0.0 102411
18 июня, пт
пт1800:00+15юв22810 0.0 102519
03:00+13ююв23930 0.0 102533
06:00+14ююв24891 0.0 102594
09:00+20ююв34700 0.0 1025388
12:00+23ю45585 0.0 10251271
15:00+25ю45525 0.0 10241548
18:00+25ююв45605 0.0 10241164
21:00+20ююв35825 0.0 1024100